Погода в Тонгулахе

Погода в Тонгулахе : погода сейчас, прогноз погоды и архив. Всё, что Вы хотите узнать о погоде в Тонгулахе!

Поиск расширенной информации на нашем сайте:

Другие новости

Новости СМИ2

Главная страница сайта

Новости сайта

03.07.2017

Напоминаем, что на нашем специализированном сайте Метеоцентр.Азия вы можете получить высокодетализированные автоматические прогнозы погоды по пунктам России, СНГ и мира в авиационном формате (включающие направление и скорость ветра, видимость, явления погоды, количество и форму облачности, нижнюю и верхнюю границу облачности).

Рекомендуем: Игры с выводом реальных игры за которые платят реальные деньги.

Погода в Тонгулахе - сегодня

Время (UTC), дата Ветер
(°,м/с) 
Видим.   Явления Облачность Т
(°С)
Тd
(°С)
f(%) Тe
(°С)
Pmin
(гПа)
dP
(гПа)
Po
(мм)
O2
(г/м3)
Тmin Tmax R s Состояние
почвы
18 20.07.17 тихо ()   20000 м    ясно 
+2 +0.1 87 +2  1011.2  740  296           
21 20.07.17 тихо ()   20000 м    ясно 
+0.1 -0.5 96 1012.3  0.9  741  298           
00 21.07.17 320 (СЗ) 20000 м    ясно 
+10.9 +3.9 62 +11  1011.5  741  286  +0        сухая 
03 21.07.17 320 (СЗ) 20000 м    ясно 
+15.9 +5.8 51 +17  1010.4  -0.5  740  281           
06 21.07.17 320 (СЗ) 20000 м    6/6 1000 м 
[Sc]
+18.4 +4.7 40 +19  1010  -0.3  740  279           
09 21.07.17 320 (СЗ) 20000 м    8/8 1000 м 
[Sc]
+16.3 +3.5 42 +17  1010.5  0.4  740  281           
12 21.07.17 320 (СЗ) 20000 м    8/0 средняя, верхняя 
[Ac trans|Ci fib]
+11.7 +3.3 56 +13  1011.8  0.8  741  286    +18.6       
15 21.07.17 тихо ()   20000 м    10/10 1000 м 
[Sc]
+4.4 +2.9 90 +4  1012.8  0.3  741  293           
18 21.07.17 тихо ()   20000 м    10/10 1000 м 
[Sc]
+3.7 +2.7 93 +4  1012.7  -0.2  741  294           
21 21.07.17 тихо ()   20000 м    10/0 средняя 
[Ac und]
+6.4 +3.8 83 +6  1012.1  -0.3  741  291           
00 22.07.17 320 (СЗ) 20000 м  дым  4/0 средняя 
[Ac trans]
+12.1 +3 54 +13  1011.1  -0.4  741  285  +3.5        сухая 
03 22.07.17 090 (В) 20000 м    8/8 600 м 
[Sc]
+17.3 +2.4 37 +18  1010  -0.7  740  280           
06 22.07.17 360 (С) 20000 м    8/8 600 м 
[Sc]
+19.3 +5.2 40 +20  1009.5  -0.3  740  278           
09 22.07.17 360 (С) 20000 м    8/8 600 м 
[Sc]
+18.7 +7 46 +20  1009.5  0.1  740  278           
12 22.07.17 тихо ()   20000 м    6/0 средняя 
[Ac trans]
+13.7 +8.3 70 +14  1010  740  282    +20.6       
15 22.07.17 тихо ()   20000 м    4/0 верхняя 
[Ci fib]
+3.6 +3.1 97 +4  1010.8  -0.1  740  294           
18 22.07.17 тихо ()   20000 м    4/0 верхняя 
[Ci fib]
+2 +1.7 98 +2  1010.8  -0.1  740  296           
21 22.07.17 тихо ()   20000 м    3/0 верхняя 
[Ci fib]
+0.2 -0.4 96 1010.5  -0.5  739  298           
00 23.07.17 тихо ()   20000 м    6/0 верхняя 
[Ci fib]
+18.2 +13.1 72 +24  1008.5  -0.4  739  277  +0.1        сухая 
03 23.07.17 тихо ()   20000 м    8/0 средняя 
[Ac trans]
+15.8 +9.8 67 +17  1007.9  -0.8  738  279           
06 23.07.17 тихо ()   20000 м    10/0 средняя 
[Ac As]
+19 +10.5 58 +21  1007  -0.7  738  276           
09 23.07.17 тихо ()   20000 м    10/0 средняя 
[Ac As]
+18.8 +10.7 59 +21  1006.6  -0.4  738  276           
12 23.07.17 тихо ()   20000 м    8/0 средняя 
[Ac trans]
+15.6 +11.5 77 +19  1005.6  -0.2  737  279    +19.3       
15 23.07.17 тихо ()   20000 м    6/0 средняя 
[Ac trans]
+12.4 +11.1 92 +15  1006.9  737  282           
18 23.07.17 тихо ()   20000 м    6/0 средняя 
[As trans]
+11 +10.4 96 +13  1006.9  -0.2  737  284           
Время (UTC), дата Ветер
(°,м/с) 
Видим.   Явления Облачность Т
(°С)
Тd
(°С)
f(%) Тe
(°С)
Pmin
(гПа)
dP
(гПа)
Po
(мм)
O2
(г/м3)
Тmin Tmax R s Состояние
почвы

Для получения пояснительной информации подведите курсор к названию столбца.

ПОГОДА в Тонгулахе - архив

Всё, что Вы хотите узнать о погоде в Тонгулахе - удобно и подробно!

Выберите нужную дату (начиная с 1 января 2015* года) и нажмите кнопку "Найти".
Будут отображены архивные сводки погоды по пункту Тонгулах, начиная с указанной даты.


Отображать данные в формате CSV (для использования в таблицах Excel)


Внимание! Наш архив погоды предназначен исключительно для личного некоммерческого использования в познавательных целях. Если Вам необходимы официальные справки о состоянии погоды (для производственных, юридических, коммерческих и т.п. целей), обращайтесь в органы Росгидромета.

*Примечание: данная дата относится к архиву по метеостанциям СССР (Россия, СНГ, Балтия).
Архив по метеостанциям Зарубежной Европы и Азии (кроме Китая) хранится 10 дней, по другим регионам земного шара (Китай, Африка, Америка, Австралия, Океания) - 1 день.

Тонгулах - район местоположения метеостанции


Название, широта, долгота, высота метеостанции:
Тонгулах 62°ш. 124.9°д. 205 м над ур. моря [Российская Федерация]

Дополнительная информация

В oтличие oт бoльшинства пoгoдных сайтoв мы публикуем пoдрoбную метеoинфoрмацию в детальнoм прoфессиoнальнoм фoрмате.

Характеристики температуры и влажнoсти вoздуха измеряются на высoте 2 м в тени вдали oт зданий и деревьев.
Скoрoсть ветра измеряется на высoте 10 м (на урoвне рoста челoвека скoрoсть ветра ниже в 1.5-2 раза). Если метеoстанция нахoдится в гoрoде или в лесу, тo скoрoсть ветра занижена на 2-4 м/с пo сравнению с oткрытым местoм. Скoрoсть ветра над акватoриями крупных рек и oзёр, а также на вершинах хoлмoв на 2-5 м/с выше, чем в oбычных услoвиях.
Атмoсфернoе давление в разных тoчках местнoсти мoжет значительнo oтличаться oт давления на метеoстанции, в зависимoсти oт услoвий рельефа (при пoдъёме на 10 м давление пoнижается примернo на 1 мм рт.ст.).